Satellite: RS-38 Catalog number: 35869 Epoch time: 11083.85670155 Element set: 225 Inclination: 098.7143 deg RA of node: 140.0812 deg Eccentricity: 0.0003758 Arg of perigee: 279.3177 deg Mean anomaly: 080.7563 deg Mean motion: 14.22003498 rev/day Decay rate: 1.77e-06 rev/day^2 Epoch rev: 7861 Checksum: 317
/EX